Location: Unspecified
(51.0000°N, 12.0000°E)
Time: 05:30:47
(UTC+01:00)

ISS - Pass Details

Date: 14 November 2017
Orbit: 402 x 407 km, 51.6° (Epoch: 21 November)

Event Time Altitude Azimuth Distance (km) Brightness Sun altitude
Exits shadow 05:45:16 31° 236° (WSW) 737 -2.9 -15.8°
Maximum altitude 05:45:55 34° 209° (SSW) 681 -2.9 -15.7°
Drops below altitude 10° 05:48:55 10° 142° (SE) 1,451 -0.3 -15.3°
Sets 05:51:05 0° 133° (SE) 2,308 1.0 -14.9°
